Location: Unspecified
(0.0000°N, 0.0000°E)
Time: 01:39:50
(UTC+00:00)

Tiangong 1 - Visible Passes

Search period start: 26 February 2018 00:00
Search period end: 08 March 2018 00:00
Orbit: 244 x 265 km, 42.8° (Epoch: 25 February)

Date Brightness Start Highest point End Pass type
(mag) Time Alt. Az. Time Alt. Az. Time Alt. Az.
26 Feb 0.1 05:30:32 15° NW 05:32:15 89° S 05:34:30 10° SE visible
27 Feb 1.3 05:24:16 26° WSW 05:24:46 29° SW 05:26:47 10° SSE visible
28 Feb 2.8 05:17:40 12° SSW 05:17:40 12° SSW 05:18:08 10° SSW visible
